STARLINK-1206 (45204 NORAD) Tracking and Keplerian Element Data

This shows tracking and keplerian element data for the satellite.

Feedback or suggestion? Click here.




ElementValue
Catalog45204
NameSTARLINK-1206
Epoch Orbit162
Epoch Day93.91667824
Epoch Year2020
RAAN44.4462
Inclination52.9999
Eccentricity0.0001502
Argument of Perigee66.1379
Mean Anonmoly7.1186
Mean Motion15.62757326
Decay Rate-1.256E-05
L11 45204U 20012AC 20093.91667824 -.00001256 00000-0 -78799-5 0 9998
L22 45204 52.9999 44.4462 0001502 66.1379 7.1186 15.62757326 1620

Live tracking and technical data element details for STARLINK-1206 (NORAD 45204). STARLINK-1206 can be tracked NOW for your location showing map with azimuth and elevation plus other details from your city location.

Track the satellite on the map from your city or location and see movement details for azimuth, elevation, latitude, longitude, range, height, and movement on the map or in text.







IsCatalogInMostPopularTable: catalog: 45204, numindb: 6
Update: records affected: 1



GetName: 45204 STARLINK-1206

Hit Count: updated at: Tue, 07 Apr 2020 15:40:48 GMT